Location: *
(45.9500°N, 9.0833°E)
Time: 20:15:12
(UTC+00:00)

Vanguard 2 Rocket - Pass Details

Date: 20 June 2021
Orbit: 555 x 3325 km, 32.9° (Epoch: 30 July)

Event Time Altitude Azimuth Distance (km) Brightness Sun altitude
Rises 18:46:25 0° 238° (WSW) 7,254 11.9 3.7°
Reaches altitude 10° 18:51:35 10° 233° (SW) 6,279 11.5 3.0°
Maximum altitude 19:09:57 47° 168° (SSE) 3,572 9.7 0.3°
Drops below altitude 10° 19:23:21 10° 101° (ESE) 4,701 10.0 -1.6°
Sets 19:26:34 0° 96° (E) 5,376 10.3 -2.1°
